Showing default

MOHAMMED VI-B, 43717

Orbit data source: Space-Track

MOHAMMED VI-B, 43717 is a payload satellite owned by RMAF (MA) in SSO that was launched on Wed, 21 Nov 2018 UTC via a VEGA launch vehicle from the French Guiana (FRGUI). Payload-class satellites include a variety of spacecraft equipped with specific instruments for various scientific and technological missions. These include communications satellites like Starlink; space stations such as the ISS; scientific satellites like the Hubble; Earth observation satellites from companies like Planet Labs, Umbra, and HawkEye 360; GPS; miniature CubeSats for education and research; and military/defense satellites.

Loading next visibility...
Identifier
43717, 2018-095A
Orbit
SSO
Country
Flag of MAMA
Related business
Manufacturer
Airbus/Toulouse
Mission
Operational Defense Imaging
Bus & Motor
ASTROSAT-1000, Unknown motor
Mass
1,108 kg wet, ~900 kg dry
Launch date (UTC)
2018-11-21 (7 years ago)
Launch vehicle
VEGA
Launch site
French Guiana (FRGUI)
Object type
Payload
Rocket body
Debris
Shape & HBR
Hex Cyl + 3 Pan, 4.0 m
Radar Cross Section
12.145 m², Large (>1 m²)

Expand to show TLE details & history
Last TLE update: 5 hours ago

TLE from 5 hours ago
0 MOHAMMED VI-B
1 43717U 18095A   26130.17376295  .00000726  00000-0  11006-3 0  9993
2 43717  97.9559 203.0195 0001352  77.6902 282.4459 14.77068887402578
Epoch: 2026-05-10T04:10Z
TLE epoch observation values (Epoch: 2026-05-10T04:10:13.118Z)
Latitude
-0.0001°
Longitude
-87.51578°
Altitude
641.403 km
Speed
7.537 km/s
True Right ascension
13h 32m 04s
True Declination
0° 00' 00"
Sunlit
Object was in full shadow at epoch
Visualization orbit readout
Latitude
Unknown
Longitude
Unknown
Altitude
Unknown
Speed
Unknown
Apparent Right ascension
Unknown
Apparent Declination
Unknown
Sunlit
N/A
Visualization observer readout
Local Sidereal Time
16:56:07
Azimuth
Unknown
Elevation
Unknown
Doppler factor
Unknown
Orbital elements
Apogee altitude
636.587 km
Perigee altitude
634.691 km
Semi-major axis
7,013.776 km
Eccentricity
0.00014
Inclination
97.9559°
RAAN
203.0195°
Arg. of periapsis
77.6902°
True anomaly
282.43077°
Mean anomaly
282.4459°
Eccentric anomaly
282.43834°
Mean motion
3.69501 °/min
Orbital period
97.43 mins
BSTAR
0.00011006
Loading maneuver chart data...
Computing Atmospheric mass density...
Loading historical data...
Loading historical data...
Loading historical data...
Loading historical data...
Loading historical data...
Loading historical data...
Loading historical data...
Other satellites on launch #95 in the year 2018 (2018-11-21 UTC)

Documentation

Showing up to 5 results
|